When you browse on this site, cookies collect data to enhance your experience and personalize the content and advertising you see.
Visit our Privacy Policy to learn more. By continuing to use the site, you agree to this use of cookies and data.

Stündliche Wetter Volkonosha

Heute, 10 Juli, Freitag

Zeit Temperatur Niederschläge Wind Luftdruck Luftfeuchtigkeit
00:00 +11°C° 0 mm 3 m/S 740 mmHg 88%
01:00 +11°C° 0 mm 3 m/S 740 mmHg 89%
02:00 +11°C° 0 mm 4 m/S 739 mmHg 90%
03:00 +11°C° 0 mm 4 m/S 739 mmHg 88%
04:00 +12°C° 0 mm 4 m/S 738 mmHg 87%
05:00 +13°C° 0 mm 5 m/S 738 mmHg 86%
06:00 +13°C° 0.2 mm 5 m/S 738 mmHg 88%
07:00 +14°C° 0.2 mm 6 m/S 737 mmHg 90%
08:00 +14°C° 0.2 mm 6 m/S 737 mmHg 92%
09:00 +16°C° 0.1 mm 6 m/S 737 mmHg 91%
10:00 +17°C° 0.1 mm 6 m/S 737 mmHg 90%
11:00 +19°C° 0.1 mm 5 m/S 737 mmHg 89%
12:00 +20°C° 0.9 mm 6 m/S 737 mmHg 87%
13:00 +21°C° 0.9 mm 6 m/S 737 mmHg 86%
14:00 +22°C° 0.9 mm 6 m/S 737 mmHg 85%
15:00 +22°C° 0.7 mm 6 m/S 737 mmHg 85%
16:00 +22°C° 0.7 mm 5 m/S 737 mmHg 85%
17:00 +22°C° 0.7 mm 5 m/S 737 mmHg 86%
18:00 +21°C° 0.6 mm 4 m/S 737 mmHg 88%
19:00 +21°C° 0.6 mm 3 m/S 737 mmHg 90%
20:00 +20°C° 0.6 mm 3 m/S 737 mmHg 92%
21:00 +20°C° 0.2 mm 3 m/S 737 mmHg 93%
22:00 +19°C° 0.2 mm 4 m/S 737 mmHg 94%
23:00 +19°C° 0.2 mm 4 m/S 737 mmHg 94%

Morgen, 11 Juli, Samstag

Zeit Temperatur Niederschläge Wind Luftdruck Luftfeuchtigkeit
00:00 +19°C° 0.2 mm 4 m/S 737 mmHg 94%
01:00 +19°C° 0.2 mm 5 m/S 737 mmHg 93%
02:00 +19°C° 0.2 mm 6 m/S 736 mmHg 93%
03:00 +19°C° 0.4 mm 5 m/S 737 mmHg 94%
04:00 +19°C° 0.4 mm 5 m/S 737 mmHg 95%
05:00 +19°C° 0.4 mm 5 m/S 737 mmHg 96%
06:00 +19°C° 0.4 mm 5 m/S 738 mmHg 93%
07:00 +19°C° 0.4 mm 5 m/S 738 mmHg 90%
08:00 +17°C° 0.4 mm 5 m/S 739 mmHg 87%
09:00 +19°C° 0 mm 4 m/S 739 mmHg 82%
10:00 +19°C° 0 mm 4 m/S 740 mmHg 78%
11:00 +19°C° 0 mm 4 m/S 740 mmHg 73%
12:00 +20°C° 0 mm 3 m/S 740 mmHg 70%
13:00 +20°C° 0 mm 3 m/S 741 mmHg 67%
14:00 +21°C° 0 mm 3 m/S 741 mmHg 64%
15:00 +20°C° 0 mm 3 m/S 741 mmHg 68%
16:00 +19°C° 0 mm 3 m/S 741 mmHg 72%
17:00 +18°C° 0 mm 3 m/S 741 mmHg 76%
18:00 +17°C° 0 mm 3 m/S 741 mmHg 76%
19:00 +16°C° 0 mm 3 m/S 741 mmHg 75%
20:00 +14°C° 0 mm 3 m/S 742 mmHg 75%
21:00 +14°C° 0.1 mm 3 m/S 742 mmHg 80%
22:00 +13°C° 0.1 mm 4 m/S 742 mmHg 85%
23:00 +12°C° 0.1 mm 4 m/S 743 mmHg 90%

übermorgen, 12 Juli, Sonntag

Zeit Temperatur Niederschläge Wind Luftdruck Luftfeuchtigkeit
00:00 +12°C° 0.1 mm 3 m/S 743 mmHg 89%
01:00 +12°C° 0.1 mm 3 m/S 743 mmHg 88%
02:00 +11°C° 0.1 mm 3 m/S 743 mmHg 87%
03:00 +11°C° 0.4 mm 3 m/S 742 mmHg 90%
04:00 +11°C° 0.4 mm 3 m/S 742 mmHg 93%
05:00 +11°C° 0.4 mm 3 m/S 742 mmHg 95%
06:00 +12°C° 1 mm 2 m/S 743 mmHg 95%
07:00 +12°C° 1 mm 2 m/S 743 mmHg 96%
08:00 +12°C° 1 mm 2 m/S 743 mmHg 96%
09:00 +12°C° 1.1 mm 2 m/S 743 mmHg 94%
10:00 +12°C° 1.1 mm 2 m/S 743 mmHg 91%
11:00 +13°C° 1.1 mm 2 m/S 744 mmHg 89%
12:00 +14°C° 0.1 mm 2 m/S 744 mmHg 82%
13:00 +15°C° 0.1 mm 2 m/S 743 mmHg 75%
14:00 +16°C° 0.1 mm 2 m/S 743 mmHg 68%
15:00 +17°C° 0 mm 2 m/S 743 mmHg 69%
16:00 +17°C° 0 mm 2 m/S 743 mmHg 69%
17:00 +17°C° 0 mm 2 m/S 743 mmHg 69%
18:00 +16°C° 0 mm 2 m/S 743 mmHg 74%
19:00 +15°C° 0 mm 2 m/S 743 mmHg 79%
20:00 +15°C° 0 mm 1 m/S 743 mmHg 84%
21:00 +14°C° 0.1 mm 2 m/S 743 mmHg 87%
22:00 +13°C° 0.1 mm 2 m/S 743 mmHg 89%
23:00 +13°C° 0.1 mm 2 m/S 743 mmHg 92%

13 Juli, Montag

Zeit Temperatur Niederschläge Wind Luftdruck Luftfeuchtigkeit
00:00 +11°C° 0 mm 3 m/S 743 mmHg 92%
01:00 +11°C° 0 mm 3 m/S 742 mmHg 92%
02:00 +10°C° 0 mm 3 m/S 742 mmHg 92%
03:00 +10°C° 0 mm 3 m/S 742 mmHg 93%
04:00 +9°C° 0 mm 3 m/S 742 mmHg 93%
05:00 +9°C° 0 mm 3 m/S 742 mmHg 93%
06:00 +10°C° 0 mm 3 m/S 742 mmHg 89%
07:00 +11°C° 0 mm 3 m/S 742 mmHg 86%
08:00 +13°C° 0 mm 3 m/S 742 mmHg 82%
09:00 +14°C° 0 mm 3 m/S 742 mmHg 76%
10:00 +16°C° 0 mm 3 m/S 742 mmHg 71%
11:00 +17°C° 0 mm 4 m/S 742 mmHg 65%
12:00 +17°C° 0 mm 4 m/S 742 mmHg 64%
13:00 +18°C° 0 mm 4 m/S 741 mmHg 64%
14:00 +18°C° 0 mm 4 m/S 741 mmHg 63%
15:00 +18°C° 0 mm 3 m/S 741 mmHg 62%
16:00 +18°C° 0 mm 3 m/S 740 mmHg 62%
17:00 +19°C° 0 mm 3 m/S 740 mmHg 61%
18:00 +17°C° 0 mm 2 m/S 740 mmHg 67%
19:00 +16°C° 0 mm 2 m/S 740 mmHg 73%
20:00 +15°C° 0 mm 2 m/S 740 mmHg 79%
21:00 +14°C° 0 mm 2 m/S 740 mmHg 81%
22:00 +13°C° 0 mm 2 m/S 740 mmHg 83%
23:00 +12°C° 0 mm 2 m/S 740 mmHg 85%

14 Juli, Dienstag

Zeit Temperatur Niederschläge Wind Luftdruck Luftfeuchtigkeit
00:00 +12°C° 0 mm 2 m/S 740 mmHg 87%
01:00 +10°C° 0 mm 2 m/S 740 mmHg 89%
02:00 +10°C° 0 mm 2 m/S 740 mmHg 90%
03:00 +10°C° 0 mm 2 m/S 740 mmHg 91%
04:00 +9°C° 0 mm 2 m/S 740 mmHg 92%
05:00 +9°C° 0 mm 2 m/S 739 mmHg 92%
06:00 +11°C° 0 mm 3 m/S 740 mmHg 88%
07:00 +13°C° 0 mm 3 m/S 740 mmHg 84%
08:00 +16°C° 0 mm 3 m/S 740 mmHg 80%
09:00 +18°C° 0 mm 3 m/S 740 mmHg 74%
10:00 +19°C° 0 mm 4 m/S 740 mmHg 68%
11:00 +20°C° 0 mm 4 m/S 739 mmHg 62%
12:00 +21°C° 0 mm 4 m/S 739 mmHg 60%
13:00 +21°C° 0 mm 4 m/S 739 mmHg 59%
14:00 +22°C° 0 mm 4 m/S 739 mmHg 58%
15:00 +21°C° 0.2 mm 4 m/S 739 mmHg 62%
16:00 +21°C° 0.2 mm 4 m/S 738 mmHg 66%
17:00 +20°C° 0.2 mm 4 m/S 738 mmHg 70%
18:00 +19°C° 0.1 mm 3 m/S 738 mmHg 75%
19:00 +18°C° 0.1 mm 3 m/S 738 mmHg 79%
20:00 +16°C° 0.1 mm 2 m/S 738 mmHg 84%
21:00 +15°C° 0 mm 2 m/S 738 mmHg 86%
22:00 +14°C° 0 mm 2 m/S 738 mmHg 88%
23:00 +13°C° 0 mm 2 m/S 738 mmHg 89%

15 Juli, Mittwoch

Zeit Temperatur Niederschläge Wind Luftdruck Luftfeuchtigkeit
00:00 +12°C° 0 mm 2 m/S 738 mmHg 90%
01:00 +12°C° 0 mm 2 m/S 738 mmHg 91%
02:00 +10°C° 0 mm 2 m/S 738 mmHg 91%
03:00 +10°C° 0 mm 2 m/S 738 mmHg 91%
04:00 +10°C° 0 mm 2 m/S 738 mmHg 91%
05:00 +9°C° 0 mm 2 m/S 738 mmHg 91%
06:00 +12°C° 0 mm 2 m/S 738 mmHg 86%
07:00 +14°C° 0 mm 2 m/S 739 mmHg 81%
08:00 +14°C° 0 mm 3 m/S 739 mmHg 75%
09:00 +17°C° 0 mm 3 m/S 739 mmHg 69%
10:00 +18°C° 0 mm 3 m/S 739 mmHg 63%
11:00 +20°C° 0 mm 3 m/S 739 mmHg 57%
12:00 +20°C° 0 mm 3 m/S 739 mmHg 56%
13:00 +21°C° 0 mm 3 m/S 738 mmHg 55%
14:00 +21°C° 0 mm 3 m/S 738 mmHg 55%
15:00 +21°C° 0 mm 3 m/S 738 mmHg 57%
16:00 +21°C° 0 mm 3 m/S 738 mmHg 59%
17:00 +21°C° 0 mm 3 m/S 738 mmHg 61%
18:00 +19°C° 0 mm 2 m/S 738 mmHg 67%
19:00 +18°C° 0 mm 2 m/S 738 mmHg 73%
20:00 +16°C° 0 mm 1 m/S 738 mmHg 79%
21:00 +15°C° 0 mm 1 m/S 738 mmHg 80%
22:00 +14°C° 0 mm 1 m/S 738 mmHg 82%
23:00 +12°C° 0 mm 0 m/S 738 mmHg 84%
Mehr zeigen